sat.trackr.live / text

‹ back to catalog

STARLINK-35337

NORAD 65831 · 2025-221J

PAYLOAD ACTIVE UNKNOWN

§ Identity

Operator
Country
US
Launch date
2025-09-29
Launch site
AFWTR
Launch vehicle
Mass (kg)
RCS (m²)

Purposes: comms

External: N2YO · Heavens-Above · Gunter

§ Orbital elements

Epoch: 2026-09-20T00:24:16.813728Z

Period
93.85 min
Inclination
53.1583°
Eccentricity
0.0003623
Mean motion
15.34405467 rev/d
Perigee alt
460.2 km
Apogee alt
465.2 km
Semi-major
6,840.8 km
B*
3.9207e-4
RAAN
261.6095°
Arg perigee
102.6097°
Mean anomaly
257.5311°
Rev number
5,589

§ Raw data

STARLINK-353371 65831U 25221J   26263.01686127  .00012896  00000+0  39207-3 0  99942 65831  53.1583 261.6095 0003623 102.6097 257.5311 15.34405467 55898

JSON: /api/v1/satellites/65831 · /tle

For live sub-satellite position, see the globe view (requires WebGL).

§ Visibility from observer

Set your observer location to see the next 7 days of passes ≥ 10°. The values pass through the URL so the page stays shareable.

No JS? Fill the form by hand. The geolocation button needs JavaScript.